Location: Ingoldesthorpe
(52.8667°N, 0.5167°E)
Time: 21:05:14
(UTC+00:00)

Cosmos 1867 - Pass Details

Date: 19 May 2025
Orbit: 775 x 798 km, 65.0° (Epoch: 12 June)

Event Time Altitude Azimuth Distance (km) Brightness Sun altitude
Rises 21:29:14 0° 315° (NW) 3,314 8.7 -10.7°
Reaches altitude 10° 21:31:43 10° 310° (NW) 2,380 7.4 -10.9°
Maximum altitude 21:37:00 51° 236° (WSW) 1,002 4.1 -11.3°
Enters shadow 21:41:24 15° 165° (SSE) 2,055 5.1 -11.7°
